Location: Remedello Sotto
(45.2500°N, 10.3667°E)
Time: 04:24:09
(UTC+00:00)

DMSP B5D2-2 - Pass Details

Date: 03 February 2023
Orbit: 788 x 805 km, 98.3° (Epoch: 29 March)

Event Time Altitude Azimuth Distance (km) Brightness Sun altitude
Rises 17:27:28 0° 11° (N) 3,332 7.1 -10.8°
Reaches altitude 10° 17:29:50 10° 9° (N) 2,395 6.4 -11.2°
Maximum altitude 17:35:06 69° 287° (WNW) 858 4.4 -12.1°
Drops below altitude 10° 17:40:18 10° 205° (SSW) 2,369 7.0 -13.0°
Sets 17:42:37 0° 203° (SSW) 3,292 7.8 -13.4°
